Location: Red Rock Canyon
(36.1333°N, 115.4333°W)
Time: 15:27:00
(UTC-07:00)

ISS - Visible Passes

Search period start: 02 August 2015 00:00
Search period end: 12 August 2015 00:00
Orbit: 401 x 403 km, 51.6° (Epoch: 02 August)

Date Brightness Start Highest point End Pass type
(mag) Time Alt. Az. Time Alt. Az. Time Alt. Az.
02 Aug -1.9 04:48:16 19° SW 04:48:16 19° SW 04:50:15 10° S visible
02 Aug -0.4 21:23:03 10° WNW 21:25:29 19° NNW 21:27:56 10° NNE visible
03 Aug -1.4 20:29:20 10° WSW 20:32:18 32° NW 20:35:18 10° NNE visible
04 Aug 0.0 21:15:01 10° NW 21:16:12 11° NNW 21:17:19 10° N visible
05 Aug -0.3 20:20:37 10° WNW 20:22:53 17° NNW 20:25:06 10° NNE visible
07 Aug 0.0 20:12:57 10° NNW 20:13:32 10° NNW 20:14:04 10° N visible
